| time (UTC) | temp F | wind direction | speed MPH | gust MPH | rain 1hr in | rain 24hr in | rain mn in | humidity % | barometer mb |
| 20260504201832 | 56 | 256 | 6.0 | 18.0 | 0.00 | 0.00 | 0.00 | 20 | 1022.4 |
| 20260504200318 | 56 | 249 | 5.0 | 15.0 | 0.00 | 0.00 | 0.00 | 21 | 1022.6 |
| 20260504194812 | 57 | 233 | 7.0 | 17.0 | 0.00 | 0.00 | 0.00 | 19 | 1022.7 |
| 20260504193334 | 57 | 231 | 7.0 | 14.0 | 0.00 | 0.00 | 0.00 | 19 | 1022.5 |
| 20260504191826 | 57 | 257 | 6.0 | 17.0 | 0.00 | 0.00 | 0.00 | 20 | 1022.7 |
| 20260504190318 | 57 | 267 | 6.0 | 13.0 | 0.00 | 0.00 | 0.00 | 19 | 1022.8 |
| 20260504184852 | 57 | 276 | 4.0 | 13.0 | 0.00 | 0.00 | 0.00 | 21 | 1022.7 |
| 20260504183347 | 56 | 278 | 7.0 | 17.0 | 0.00 | 0.00 | 0.00 | 21 | 1022.9 |
| 20260504181837 | 56 | 266 | 4.0 | 16.0 | 0.00 | 0.00 | 0.00 | 24 | 1022.7 |
| 20260504180336 | 57 | 211 | 6.0 | 15.0 | 0.00 | 0.00 | 0.00 | 26 | 1023.1 |
| 20260504174822 | 57 | 224 | 4.0 | 14.0 | 0.00 | 0.00 | 0.00 | 27 | 1023.1 |
| 20260504173316 | 56 | 271 | 4.0 | 15.0 | 0.00 | 0.00 | 0.00 | 28 | 1022.9 |
| 20260504171830 | 55 | 264 | 7.0 | 14.0 | 0.00 | 0.00 | 0.00 | 30 | 1023.1 |
| 20260504170345 | 55 | 231 | 4.0 | 11.0 | 0.00 | 0.00 | 0.00 | 34 | 1022.9 |
| 20260504160320 | 51 | 285 | 2.0 | 12.0 | 0.00 | 0.00 | 0.00 | 39 | 1023.1 |
| 20260504150338 | 49 | 275 | 5.0 | 7.0 | 0.00 | 0.00 | 0.00 | 41 | 1023.4 |
| 20260504140312 | 47 | 268 | 3.0 | 9.0 | 0.00 | 0.00 | 0.00 | 45 | 1023.5 |
| 20260504130312 | 47 | 260 | 1.0 | 4.0 | 0.00 | 0.00 | 0.00 | 49 | 1023.1 |
| 20260504110324 | 39 | 262 | 0.0 | 0.0 | 0.00 | 0.00 | 0.00 | 64 | 1021.9 |
| 20260504100319 | 42 | 262 | 0.0 | 0.0 | 0.00 | 0.00 | 0.00 | 59 | 1022.1 |
| 20260504081819 | 49 | 261 | 0.0 | 3.0 | 0.00 | 0.00 | 0.00 | 48 | 1022.9 |
| 20260504080333 | 49 | 260 | 2.0 | 8.0 | 0.00 | 0.00 | 0.00 | 47 | 1023.1 |
| 20260504070323 | 46 | 278 | 0.0 | 3.0 | 0.00 | 0.00 | 0.00 | 52 | 1023.8 |
| 20260504050320 | 51 | 273 | 3.0 | 9.0 | 0.00 | 0.00 | 0.00 | 32 | 1024.0 |
| 20260504044814 | 51 | 120 | 0.0 | 6.0 | 0.00 | 0.00 | 0.00 | 31 | 1024.1 |
| 20260504043329 | 50 | 259 | 3.0 | 13.0 | 0.00 | 0.00 | 0.00 | 33 | 1024.2 |
| 20260504041814 | 49 | 256 | 0.0 | 0.0 | 0.00 | 0.00 | 0.00 | 35 | 1024.1 |
| 20260504040356 | 50 | 256 | 0.0 | 0.0 | 0.00 | 0.00 | 0.00 | 33 | 1023.9 |
| 20260504034829 | 51 | 256 | 0.0 | 0.0 | 0.00 | 0.00 | 0.00 | 31 | 1023.9 |
| 20260504033318 | 52 | 256 | 0.0 | 0.0 | 0.00 | 0.00 | 0.00 | 29 | 1023.8 |
| 20260504031838 | 53 | 256 | 0.0 | 1.0 | 0.00 | 0.00 | 0.00 | 27 | 1023.9 |
| 20260504030324 | 53 | 256 | 1.0 | 4.0 | 0.00 | 0.00 | 0.00 | 26 | 1023.9 |
| 20260504024819 | 52 | 256 | 1.0 | 4.0 | 0.00 | 0.00 | 0.00 | 23 | 1023.7 |
| 20260504023314 | 51 | 165 | 5.0 | 11.0 | 0.00 | 0.00 | 0.00 | 22 | 1023.4 |
| 20260504021826 | 53 | 264 | 0.0 | 0.0 | 0.00 | 0.00 | 0.00 | 23 | 1023.4 |
| 20260504020320 | 55 | 264 | 0.0 | 0.0 | 0.00 | 0.00 | 0.00 | 19 | 1023.3 |
| 20260504014812 | 56 | 265 | 0.0 | 3.0 | 0.00 | 0.00 | 0.00 | 17 | 1023.2 |
| 20260504013328 | 58 | 264 | 1.0 | 6.0 | 0.00 | 0.00 | 0.00 | 16 | 1023.1 |
| 20260504011821 | 60 | 266 | 4.0 | 9.0 | 0.00 | 0.00 | 0.00 | 14 | 1023.1 |
| 20260504010315 | 63 | 260 | 5.0 | 12.0 | 0.00 | 0.00 | 0.00 | 13 | 1023.1 |
| 20260504004857 | 64 | 234 | 4.0 | 8.0 | 0.00 | 0.00 | 0.00 | 12 | 1023.2 |
| 20260504003331 | 64 | 268 | 6.0 | 15.0 | 0.00 | 0.00 | 0.00 | 13 | 1023.5 |
| 20260504001817 | 65 | 283 | 5.0 | 9.0 | 0.00 | 0.00 | 0.00 | 12 | 1023.5 |
| 20260504000337 | 62 | 242 | 3.0 | 12.0 | 0.00 | 0.00 | 0.00 | 14 | 1023.6 |
| 20260503234852 | 64 | 249 | 5.0 | 13.0 | 0.00 | 0.00 | 0.00 | 12 | 1023.7 |
| 20260503233327 | 66 | 281 | 3.0 | 11.0 | 0.00 | 0.00 | 0.00 | 13 | 1023.8 |
| 20260503231818 | 64 | 268 | 5.0 | 11.0 | 0.00 | 0.00 | 0.00 | 13 | 1024.0 |
| 20260503230331 | 65 | 266 | 7.0 | 14.0 | 0.00 | 0.00 | 0.00 | 12 | 1024.1 |
| 20260503224842 | 65 | 265 | 9.0 | 15.0 | 0.00 | 0.00 | 0.00 | 13 | 1024.5 |
| 20260503223337 | 65 | 214 | 2.0 | 12.0 | 0.00 | 0.00 | 0.00 | 16 | 1024.4 |
| 20260503221828 | 65 | 278 | 5.0 | 12.0 | 0.00 | 0.00 | 0.00 | 14 | 1025.0 |
| 20260503220322 | 66 | 249 | 5.0 | 10.0 | 0.00 | 0.00 | 0.00 | 14 | 1025.3 |
| 20260503214815 | 65 | 264 | 5.0 | 10.0 | 0.00 | 0.00 | 0.00 | 16 | 1025.5 |
| 20260503213351 | 64 | 183 | 4.0 | 14.0 | 0.00 | 0.00 | 0.00 | 15 | 1025.6 |
| 20260503211823 | 64 | 285 | 4.0 | 12.0 | 0.00 | 0.00 | 0.00 | 15 | 1025.8 |
| 20260503210317 | 64 | 181 | 4.0 | 8.0 | 0.00 | 0.00 | 0.00 | 18 | 1026.1 |
| 20260503204813 | 64 | 229 | 8.0 | 12.0 | 0.00 | 0.00 | 0.00 | 18 | 1026.4 |
| 20260503203345 | 63 | 140 | 6.0 | 12.0 | 0.00 | 0.00 | 0.00 | 19 | 1026.5 |